This is the latest recevied weather packets stored in our database for station/object N4ZIQ. If no packets are shown the sender has not sent any weather packets the latest 10 day(s).
| Time | Temp. | Humidity | Pressure | Rain* | Wind** | Luminosity | Snow |
|---|---|---|---|---|---|---|---|
| 1777419057 | 24.44° C | 73% | 1018.5 hPa | 0 mm | - | 26 W/m² | - |
| 1777418746 | 24.44° C | 72% | 1018.5 hPa | 0 mm | - | 35 W/m² | - |
| 1777418444 | 25° C | 71% | 1018.4 hPa | 0 mm | - | 46 W/m² | - |
| 1777418155 | 25° C | 71% | 1018.3 hPa | 0 mm | - | 58 W/m² | - |
| 1777417845 | 25° C | 70% | 1018.3 hPa | 0 mm | - | 74 W/m² | - |
| 1777417546 | 25° C | 70% | 1018.2 hPa | 0 mm | - | 88 W/m² | - |
| 1777417250 | 25° C | 71% | 1018.2 hPa | 0 mm | - | 104 W/m² | - |
| 1777416946 | 25.56° C | 70% | 1018.2 hPa | 0 mm | - | 123 W/m² | - |
| 1777416646 | 25.56° C | 70% | 1018.2 hPa | 0 mm | - | 84 W/m² | - |
| 1777416353 | 26.11° C | 69% | 1018.1 hPa | 0 mm | - | 167 W/m² | - |
| 1777416045 | 26.11° C | 69% | 1018.1 hPa | 0 mm | - | 188 W/m² | - |
| 1777415745 | 26.11° C | 68% | 1018.2 hPa | 0 mm | - | 209 W/m² | - |
| 1777415454 | 26.67° C | 68% | 1018.2 hPa | 0 mm | - | 243 W/m² | - |
| 1777415145 | 26.67° C | 67% | 1018.3 hPa | 0 mm | - | 243 W/m² | - |
| 1777414845 | 26.67° C | 67% | 1018.3 hPa | 0 mm | - | 258 W/m² | - |
| 1777414549 | 26.67° C | 67% | 1018.3 hPa | 0 mm | - | 279 W/m² | - |
| 1777414245 | 26.67° C | 67% | 1018.2 hPa | 0 mm | - | 294 W/m² | - |
| 1777413945 | 26.67° C | 66% | 1018.4 hPa | 0 mm | - | 322 W/m² | - |
| 1777413652 | 26.67° C | 67% | 1018.4 hPa | 0 mm | - | 348 W/m² | - |
| 1777413345 | 26.11° C | 68% | 1018.3 hPa | 0 mm | - | 352 W/m² | - |
| 1777413044 | 26.67° C | 67% | 1018.4 hPa | 0 mm | - | 51 W/m² | - |
| 1777412753 | 26.67° C | 66% | 1018.4 hPa | 0 mm | - | 325 W/m² | - |
| 1777412444 | 27.22° C | 65% | 1018.3 hPa | 0 mm | - | 436 W/m² | - |
| 1777412146 | 27.22° C | 64% | 1018.3 hPa | 0 mm | - | 132 W/m² | - |
| 1777411853 | 27.78° C | 65% | 1018.3 hPa | 0 mm | - | 445 W/m² | - |
* Rain latest hour (hover to see other rain measurements)
** Current wind speed in m/s (hover to see current wind gust speed)